{"data":{"norad_id":68762,"intl_designator":"2026-083H","name":"COSMOS 2612","alt_names":[],"object_type":"PAYLOAD","status":"ACTIVE","operator":null,"country":"CIS","launch_date":"2026-04-16","launch_site_code":"PLMSC","launch_vehicle":null,"mission":null,"orbit_class":"UNKNOWN","rcs_meters":null,"size_class":null,"mass_kg":null,"dimensions":null,"purposes":[],"wikipedia_slug":null,"has_3d_model":false,"image_url":null,"decayed_at":null,"tle_current":{"epoch":"2026-05-24T22:43:01.138080Z","epoch_age_seconds":83177,"freshness":"FRESH","line1":"1 68762U 26083H   26144.94654095  .00001964  00000+0  13574-3 0  9999","line2":"2 68762  97.8499 282.5884 0014111 126.0214 234.2323 15.06883052  5707","mean_motion":15.06883052,"eccentricity":0.0014111,"inclination_deg":97.8499,"raan_deg":282.5884,"arg_perigee_deg":126.0214,"mean_anomaly_deg":234.2323,"bstar":0.00013574,"rev_number":570,"period_min":95.561496832071,"perigee_km":535.96119783992,"apogee_km":555.5017394321,"semimajor_km":6923.868468636,"source":"CELESTRAK","updated_at":"2026-05-25T13:38:08.060824Z"}}}